TimeEDT,TemperatureF,Dew PointF,Humidity,Sea Level PressureIn,VisibilityMPH,Wind Direction,Wind SpeedMPH,Gust SpeedMPH,PrecipitationIn,Events,Conditions,WindDirDegrees,DateUTC
12:54 AM,39.9,30.9,70,30.13,10.0,SW,3.5,-,N/A,,Overcast,230,2013-10-26 04:54:00
1:54 AM,39.0,30.9,73,30.13,10.0,Calm,Calm,-,N/A,,Overcast,0,2013-10-26 05:54:00
2:54 AM,39.0,30.0,70,30.12,10.0,SW,6.9,-,N/A,,Overcast,230,2013-10-26 06:54:00
3:54 AM,39.0,30.0,70,30.10,10.0,Calm,Calm,-,N/A,,Overcast,0,2013-10-26 07:54:00
4:54 AM,35.1,28.9,78,30.10,10.0,WSW,5.8,-,N/A,,Mostly Cloudy,240,2013-10-26 08:54:00
5:54 AM,33.1,28.9,85,30.10,10.0,West,4.6,-,N/A,,Clear,270,2013-10-26 09:54:00
6:54 AM,34.0,28.9,82,30.09,10.0,Calm,Calm,-,N/A,,Clear,0,2013-10-26 10:54:00
7:54 AM,32.0,30.0,92,30.10,10.0,Calm,Calm,-,N/A,,Clear,0,2013-10-26 11:54:00
8:54 AM,36.0,30.9,82,30.09,10.0,SW,6.9,-,N/A,,Partly Cloudy,220,2013-10-26 12:54:00
9:54 AM,39.9,30.0,68,30.06,10.0,South,9.2,-,N/A,,Mostly Cloudy,180,2013-10-26 13:54:00
10:54 AM,43.0,28.0,56,30.04,10.0,SW,10.4,-,N/A,,Partly Cloudy,220,2013-10-26 14:54:00
11:54 AM,45.0,26.1,48,30.01,10.0,SSW,11.5,19.6,N/A,,Clear,200,2013-10-26 15:54:00
12:54 PM,48.0,25.0,41,29.96,10.0,SW,20.7,29.9,N/A,,Overcast,220,2013-10-26 16:54:00
1:54 PM,46.9,25.0,42,29.93,10.0,SSW,16.1,26.5,N/A,,Partly Cloudy,210,2013-10-26 17:54:00
2:54 PM,46.9,25.0,42,29.91,10.0,SW,16.1,23.0,N/A,,Partly Cloudy,220,2013-10-26 18:54:00
3:54 PM,46.9,24.1,41,29.86,10.0,SSW,11.5,29.9,N/A,,Clear,200,2013-10-26 19:54:00
4:54 PM,46.9,21.9,37,29.86,10.0,SW,17.3,33.4,N/A,,Clear,220,2013-10-26 20:54:00
5:54 PM,46.9,24.1,41,29.86,10.0,SW,11.5,21.9,N/A,,Partly Cloudy,220,2013-10-26 21:54:00
6:54 PM,46.9,25.0,42,29.87,10.0,SW,10.4,20.7,N/A,,Overcast,220,2013-10-26 22:54:00
7:54 PM,46.0,25.0,44,29.87,10.0,SSW,8.1,-,N/A,,Overcast,200,2013-10-26 23:54:00
8:54 PM,46.0,26.1,46,29.85,10.0,SSW,8.1,-,0.00,,Overcast,210,2013-10-27 00:54:00
9:54 PM,46.0,26.1,46,29.84,10.0,SW,6.9,17.3,N/A,,Overcast,220,2013-10-27 01:54:00
10:54 PM,45.0,27.0,49,29.82,10.0,SSW,8.1,18.4,0.00,,Overcast,200,2013-10-27 02:54:00
11:54 PM,45.0,27.0,49,29.81,10.0,SSW,9.2,-,N/A,,Overcast,200,2013-10-27 03:54:00